Time,TemperatureF,DewpointF,PressureIn,WindDirection,WindDirectionDegrees,WindSpeedMPH,WindSpeedGustMPH,Humidity,HourlyPrecipIn,Conditions,Clouds,dailyrainin,SolarRadiationWatts/m^2,SoftwareType,DateUTC
2013-09-01 00:03:00,80.0,75.0,-100.00,ESE,103,1.0,3.0,86,0.00,,,0.00,0.000000,,2013-09-01 05:03:00,
2013-09-01 00:43:00,79.0,75.0,-100.00,NNW,342,0.0,2.0,89,0.00,,,0.00,0.000000,,2013-09-01 05:43:00,
2013-09-01 00:52:00,79.0,75.0,-100.00,NNW,342,0.0,2.0,89,0.00,,,0.00,0.000000,,2013-09-01 05:52:00,
2013-09-01 01:02:00,79.0,75.0,-100.00,NNW,342,0.0,2.0,89,0.00,,,0.00,0.000000,,2013-09-01 06:02:00,
2013-09-01 01:42:00,80.0,74.0,-100.00,SSW,197,2.0,6.0,83,0.00,,,0.00,0.000000,,2013-09-01 06:42:00,
2013-09-01 01:52:00,80.0,74.0,-100.00,SSW,197,2.0,6.0,83,0.00,,,0.00,0.000000,,2013-09-01 06:52:00,
2013-09-01 02:02:00,80.0,74.0,-100.00,SSW,197,2.0,6.0,83,0.00,,,0.00,0.000000,,2013-09-01 07:02:00,
2013-09-01 02:42:00,80.0,73.0,-100.00,SW,224,2.0,6.0,80,0.00,,,0.00,0.000000,,2013-09-01 07:42:00,
2013-09-01 02:52:00,80.0,73.0,-100.00,SW,224,2.0,6.0,80,0.00,,,0.00,0.000000,,2013-09-01 07:52:00,
2013-09-01 03:02:00,80.0,73.0,-100.00,SW,224,2.0,6.0,80,0.00,,,0.00,0.000000,,2013-09-01 08:02:00,
2013-09-01 03:43:00,80.0,73.0,-100.00,SW,225,3.0,9.0,80,0.00,,,0.00,0.000000,,2013-09-01 08:43:00,
2013-09-01 03:52:00,80.0,73.0,-100.00,SW,225,3.0,9.0,80,0.00,,,0.00,0.000000,,2013-09-01 08:52:00,
2013-09-01 04:02:00,80.0,73.0,-100.00,SW,225,3.0,9.0,80,0.00,,,0.00,0.000000,,2013-09-01 09:02:00,
2013-09-01 04:43:00,77.0,71.0,-100.00,ESE,111,5.0,10.0,82,0.00,,,0.00,0.000000,,2013-09-01 09:43:00,
2013-09-01 04:53:00,77.0,71.0,-100.00,ESE,111,5.0,10.0,82,0.00,,,0.00,0.000000,,2013-09-01 09:53:00,
2013-09-01 05:03:00,77.0,71.0,-100.00,ESE,111,5.0,10.0,82,0.00,,,0.00,0.000000,,2013-09-01 10:03:00,
2013-09-01 05:42:00,73.0,71.0,-100.00,SE,145,5.0,11.0,92,0.00,,,0.00,0.000000,,2013-09-01 10:42:00,
2013-09-01 05:53:00,73.0,71.0,-100.00,SE,145,5.0,11.0,92,0.00,,,0.00,0.000000,,2013-09-01 10:53:00,
2013-09-01 06:02:00,73.0,71.0,-100.00,SE,145,5.0,11.0,92,0.00,,,0.00,0.000000,,2013-09-01 11:02:00,
2013-09-01 06:42:00,71.0,69.0,-100.00,SSE,155,2.0,9.0,93,0.00,,,0.00,0.000000,,2013-09-01 11:42:00,
2013-09-01 06:52:00,71.0,69.0,-100.00,SSE,155,2.0,9.0,93,0.00,,,0.00,0.000000,,2013-09-01 11:52:00,
2013-09-01 07:01:00,71.0,69.0,-100.00,SSE,155,2.0,9.0,93,0.00,,,0.00,0.000000,,2013-09-01 12:01:00,
2013-09-01 07:42:00,71.0,69.0,-100.00,WSW,243,1.0,4.0,95,0.00,,,0.00,3.000000,,2013-09-01 12:42:00,
2013-09-01 07:52:00,71.0,69.0,-100.00,WSW,243,1.0,4.0,95,0.00,,,0.00,3.000000,,2013-09-01 12:52:00,
2013-09-01 08:02:00,71.0,69.0,-100.00,WSW,243,1.0,4.0,95,0.00,,,0.00,3.000000,,2013-09-01 13:02:00,
2013-09-01 08:42:00,72.0,70.0,-100.00,SSW,206,3.0,8.0,95,0.00,,,0.00,61.000000,,2013-09-01 13:42:00,
2013-09-01 08:52:00,72.0,70.0,-100.00,SSW,206,3.0,8.0,95,0.00,,,0.00,61.000000,,2013-09-01 13:52:00,
2013-09-01 09:02:00,72.0,70.0,-100.00,SSW,206,3.0,8.0,95,0.00,,,0.00,61.000000,,2013-09-01 14:02:00,
2013-09-01 09:42:00,73.0,71.0,-100.00,SSW,205,2.0,6.0,92,0.00,,,0.00,70.000000,,2013-09-01 14:42:00,
2013-09-01 09:52:00,73.0,71.0,-100.00,SSW,205,2.0,6.0,92,0.00,,,0.00,70.000000,,2013-09-01 14:52:00,
2013-09-01 10:02:00,73.0,71.0,-100.00,SSW,205,2.0,6.0,92,0.00,,,0.00,70.000000,,2013-09-01 15:02:00,
2013-09-01 10:45:00,77.0,70.0,-100.00,SW,224,5.0,15.0,79,0.00,,,0.00,433.000000,,2013-09-01 15:45:00,
2013-09-01 10:55:00,77.0,70.0,-100.00,SW,224,5.0,15.0,79,0.00,,,0.00,433.000000,,2013-09-01 15:55:00,
2013-09-01 11:05:00,77.0,70.0,-100.00,SW,224,5.0,15.0,79,0.00,,,0.00,433.000000,,2013-09-01 16:05:00,
2013-09-01 11:43:00,79.0,72.0,-100.00,WSW,242,6.0,15.0,79,0.00,,,0.00,465.000000,,2013-09-01 16:43:00,
2013-09-01 11:53:00,79.0,72.0,-100.00,WSW,242,6.0,15.0,79,0.00,,,0.00,465.000000,,2013-09-01 16:53:00,
2013-09-01 12:03:00,79.0,72.0,-100.00,WSW,242,6.0,15.0,79,0.00,,,0.00,465.000000,,2013-09-01 17:03:00,
2013-09-01 12:42:00,83.0,73.0,-100.00,WSW,246,7.0,16.0,73,0.00,,,0.00,686.000000,,2013-09-01 17:42:00,
2013-09-01 12:52:00,83.0,73.0,-100.00,WSW,246,7.0,16.0,73,0.00,,,0.00,686.000000,,2013-09-01 17:52:00,
2013-09-01 13:02:00,83.0,73.0,-100.00,WSW,246,7.0,16.0,73,0.00,,,0.00,686.000000,,2013-09-01 18:02:00,
2013-09-01 13:42:00,84.0,73.0,-100.00,SW,216,4.0,18.0,69,0.00,,,0.00,692.000000,,2013-09-01 18:42:00,
2013-09-01 13:52:00,84.0,73.0,-100.00,SW,216,4.0,18.0,69,0.00,,,0.00,692.000000,,2013-09-01 18:52:00,
2013-09-01 14:02:00,84.0,73.0,-100.00,SW,216,4.0,18.0,69,0.00,,,0.00,692.000000,,2013-09-01 19:02:00,
2013-09-01 14:42:00,85.0,73.0,-100.00,SW,225,7.0,15.0,67,0.00,,,0.00,889.000000,,2013-09-01 19:42:00,
2013-09-01 14:52:00,85.0,73.0,-100.00,SW,225,7.0,15.0,67,0.00,,,0.00,889.000000,,2013-09-01 19:52:00,
2013-09-01 15:02:00,85.0,73.0,-100.00,SW,225,7.0,15.0,67,0.00,,,0.00,889.000000,,2013-09-01 20:02:00,
2013-09-01 15:42:00,83.0,71.0,-100.00,WSW,240,6.0,18.0,67,0.00,,,0.00,701.000000,,2013-09-01 20:42:00,
2013-09-01 15:52:00,83.0,71.0,-100.00,WSW,240,6.0,18.0,67,0.00,,,0.00,701.000000,,2013-09-01 20:52:00,
2013-09-01 16:02:00,83.0,71.0,-100.00,WSW,240,6.0,18.0,67,0.00,,,0.00,701.000000,,2013-09-01 21:02:00,
2013-09-01 16:44:00,84.0,72.0,-100.00,WSW,251,8.0,18.0,68,0.00,,,0.00,561.000000,,2013-09-01 21:44:00,
2013-09-01 16:55:00,84.0,72.0,-100.00,WSW,251,8.0,18.0,68,0.00,,,0.00,561.000000,,2013-09-01 21:55:00,
2013-09-01 17:04:00,84.0,72.0,-100.00,WSW,251,8.0,18.0,68,0.00,,,0.00,561.000000,,2013-09-01 22:04:00,
2013-09-01 17:43:00,83.0,73.0,-100.00,WSW,251,8.0,12.0,71,0.00,,,0.00,357.000000,,2013-09-01 22:43:00,
2013-09-01 17:53:00,83.0,73.0,-100.00,WSW,251,8.0,12.0,71,0.00,,,0.00,357.000000,,2013-09-01 22:53:00,
2013-09-01 18:03:00,83.0,73.0,-100.00,WSW,251,8.0,12.0,71,0.00,,,0.00,357.000000,,2013-09-01 23:03:00,
2013-09-01 18:42:00,81.0,73.0,-100.00,SW,232,2.0,12.0,77,0.00,,,0.00,119.000000,,2013-09-01 23:42:00,
2013-09-01 18:53:00,81.0,73.0,-100.00,SW,232,2.0,12.0,77,0.00,,,0.00,119.000000,,2013-09-01 23:53:00,
2013-09-01 19:02:00,81.0,73.0,-100.00,SW,232,2.0,12.0,77,0.00,,,0.00,119.000000,,2013-09-02 00:02:00,
2013-09-01 19:42:00,80.0,74.0,-100.00,SW,217,2.0,5.0,82,0.00,,,0.00,77.000000,,2013-09-02 00:42:00,
2013-09-01 19:52:00,80.0,74.0,-100.00,SW,217,2.0,5.0,82,0.00,,,0.00,77.000000,,2013-09-02 00:52:00,
2013-09-01 20:02:00,80.0,74.0,-100.00,SW,217,2.0,5.0,82,0.00,,,0.00,77.000000,,2013-09-02 01:02:00,
2013-09-01 20:42:00,77.0,73.0,-100.00,ESE,114,0.0,6.0,88,0.00,,,0.00,8.000000,,2013-09-02 01:42:00,
2013-09-01 20:52:00,77.0,73.0,-100.00,ESE,114,0.0,6.0,88,0.00,,,0.00,8.000000,,2013-09-02 01:52:00,
2013-09-01 21:02:00,77.0,73.0,-100.00,ESE,114,0.0,6.0,88,0.00,,,0.00,8.000000,,2013-09-02 02:02:00,
2013-09-01 21:42:00,75.0,73.0,-100.00,West,271,1.0,3.0,93,0.00,,,0.00,0.000000,,2013-09-02 02:42:00,
2013-09-01 21:52:00,75.0,73.0,-100.00,West,271,1.0,3.0,93,0.00,,,0.00,0.000000,,2013-09-02 02:52:00,
2013-09-01 22:02:00,75.0,73.0,-100.00,West,271,1.0,3.0,93,0.00,,,0.00,0.000000,,2013-09-02 03:02:00,
2013-09-01 22:44:00,75.0,73.0,-100.00,ESE,119,0.0,4.0,95,0.00,,,0.00,0.000000,,2013-09-02 03:44:00,
2013-09-01 22:56:00,75.0,73.0,-100.00,ESE,119,0.0,4.0,95,0.00,,,0.00,0.000000,,2013-09-02 03:56:00,
2013-09-01 23:04:00,75.0,73.0,-100.00,ESE,119,0.0,4.0,95,0.00,,,0.00,0.000000,,2013-09-02 04:04:00,
2013-09-01 23:44:00,74.0,73.0,-100.00,South,174,0.0,2.0,98,0.00,,,0.00,0.000000,,2013-09-02 04:44:00,
2013-09-01 23:54:00,74.0,73.0,-100.00,South,174,0.0,2.0,98,0.00,,,0.00,0.000000,,2013-09-02 04:54:00,